Regional Weather Roundup
Issued by NWS Bismarck, ND

Home | Current Version | Previous Version | Text Only | Print | Product List | Glossary On
Versions: 1 2 3 4 5 6 7 8 9 10 11 12 13 14 15 16 17 18 19 20 21 22 23 24 25 26 27 28 29 30 31 32 33 34 35 36 37 38 39 40 41 42 43 44 45 46 47 48 49 50
000
ASUS43 KBIS 300920
RWRBIS

NWR BROADCAST TEXT
NATIONAL WEATHER SERVICE BISMARCK ND
300 AM CST FRI JAN 30 2015

NOTE: "FAIR" INDICATES FEW OR NO CLOUDS BELOW 12,000 FEET WITH NO
SIGNIFICANT WEATHER AND/OR OBSTRUCTIONS TO VISIBILITY.


CITY           SKY/WX    TMP DP  RH WIND       PRES   REMARKS
WILLISTON      PTCLDY    26  19  74 S5        30.17F
MINOT          CLOUDY    19  15  84 SE7       30.25F WCI  10
MINOT AFB      CLOUDY    17  17  99 SE10      30.25F WCI   5
BISMARCK       CLEAR     20  18  92 S13       30.34F WCI   7
DICKINSON      PTCLDY    28  18  66 S10       30.19F WCI  19
GARRISON         N/A     19  16  88 S7        30.26F WCI  10
HETTINGER ARPT CLEAR     25  17  72 SE8       30.25F WCI  16
JAMESTOWN      CLOUDY    18  14  84 S16       30.39F WCI   3
BEACH          FAIR      27  23  86 S8        30.19F WCI  18
CARRINGTON     CLOUDY    18  18 100 MISG      30.37F
CROSBY         FAIR      23  23 100 SW9       30.17S WCI  13
HARVEY         FAIR      14  14 100 SE10      30.33F WCI   1
HAZEN          FAIR      19  16  86 N5        30.28F WCI  13
LINTON         PTSUNNY   19  19 100 S17G23    30.35F WCI   4
MANDAN         FAIR      19  18  93 S14       30.32F WCI   6
OAKES            N/A     18  16  93 S12       30.45F WCI   5
RUGBY          CLOUDY    16  14  93 SE13G18   30.33F WCI   2
STANLEY        FAIR      19  19 100 S9        30.17F WCI   9
TIOGA          FAIR      19  19 100 S7        30.19F WCI  10
WATFORD CITY   FAIR      21  19  93 CALM      30.16F
$$

CITY           SKY/WX    TMP DP  RH WIND       PRES   REMARKS
GRAND FORKS    MOCLDY     7   0  73 S8        30.50F WCI  -6
GRAND FORKS AF CLOUDY     7   1  78 S8        30.48F WCI  -6
DEVILS LAKE    CLOUDY    12   9  85 S8        30.36F WCI   1
FARGO          PTCLDY     9   2  73 SE7       30.50F WCI  -2
CANDO          CLOUDY    14  10  85 S10       30.37F WCI   1
CAVALIER       FAIR       7   1  78 S7        30.47F WCI  -5
GWINNER        CLOUDY    18  14  86 S10       30.46F WCI   6
ROLLA          CLOUDY    10  10 100 S15       30.32F WCI  -6
WALHALLA         N/A      7   5  92 SE9       30.45F WCI  -7
$$

CITY           SKY/WX    TMP DP  RH WIND       PRES   REMARKS
ABERDEEN       CLEAR     15  11  83 CALM      30.48S
MOBRIDGE       CLEAR     21  17  84 SE14      30.35F WCI   8
BUFFALO          N/A     25  16  68 S8        30.16F WCI  16
RAPID CITY     CLEAR     22  13  68 E3        30.24F
GLASGOW        CLEAR     26  21  81 CALM      30.16S
SIDNEY         PTCLDY    27  21  80 S9        30.18F WCI  17
WOLF POINT     CLEAR     22  19  89 CALM      30.17F
GLENDIVE       PTCLDY    28  21  74 S6        30.18F
MILES CITY     PTCLDY    30  23  75 SE7       30.21R
BAKER          PTCLDY    27  19  72 E6        30.20F
$$

CITY           SKY/WX    TMP DP  RH WIND       PRES   REMARKS
BILLINGS       MOCLDY    37  28  70 SW17      30.21S
GREAT FALLS    CLEAR     30  18  60 S12       30.19F
REGINA         CLEAR     14  12  92 SE10      30.16F WCI   1
ESTEVAN        PTCLDY    14  12  92 E6        30.18F WCI   5
$$



USA.gov is the U.S. government's official web portal to all federal, state and local government web resources and services.